N0ZJT Weather Reports


time (UTC)temp
C
wind
direction
speed
KPH
gust
KPH
rain 1hr
cm
rain 24hr
cm
rain mn
cm
humidity
%
barometer
mb
20260505114622 7 0 0.0 0.0 0.00 0.00 0.00 54 971.9
20260505113222 7 0 0.0 0.0 0.00 0.00 0.00 54 971.2
20260505111622 7 90 0.0 1.6 0.00 0.00 0.00 53 971.2
20260505110222 7 0 0.0 1.6 0.00 0.00 0.00 51 970.7
20260505101622 7 0 0.0 0.0 0.00 0.00 0.00 50 970.2
20260505100222 7 0 0.0 0.0 0.00 0.00 0.00 50 970.6
20260505094622 7 0 0.0 0.0 0.00 0.00 0.00 50 970.6
20260505093222 7 0 0.0 0.0 0.00 0.00 0.00 49 970.1
20260505091622 7 0 0.0 0.0 0.00 0.00 0.00 48 969.9
20260505090222 7 141 0.0 1.6 0.00 0.00 0.00 47 969.7
20260505084622 7 152 1.6 3.2 0.00 0.00 0.00 47 969.5
20260505083222 8 182 3.2 3.2 0.00 0.00 0.00 46 969.2
20260505081622 8 142 0.0 3.2 0.00 0.00 0.00 46 968.7
20260505080222 8 174 1.6 4.8 0.00 0.00 0.00 46 969.2
20260505074622 8 181 3.2 4.8 0.00 0.00 0.00 45 969.3
20260505073222 8 175 1.6 4.8 0.00 0.00 0.00 45 968.6
20260505071622 8 160 0.0 3.2 0.00 0.00 0.00 45 968.9
20260505070222 8 172 3.2 9.7 0.00 0.00 0.00 44 968.7
20260505064622 9 84 1.6 6.4 0.00 0.00 0.00 43 969.0
20260505063222 9 151 4.8 17.7 0.00 0.00 0.00 43 969.1
20260505061622 10 206 4.8 14.5 0.00 0.00 0.00 43 968.7
20260505060222 10 156 3.2 14.5 0.00 0.00 0.00 43 968.6
20260505054622 10 172 9.7 12.9 0.00 0.00 0.00 42 968.5
20260505053222 10 100 16.1 19.3 0.00 0.00 0.00 43 968.4
20260505051622 10 190 8.0 22.5 0.00 0.00 0.00 42 968.3
20260505050222 11 148 8.0 16.1 0.00 0.00 0.00 42 967.8
20260505041622 11 180 8.0 16.1 0.00 0.00 0.00 41 967.8
20260505040222 11 123 4.8 12.9 0.00 0.00 0.00 42 967.7
20260505034622 12 146 6.4 22.5 0.00 0.00 0.00 41 967.7
20260505033222 12 129 8.0 17.7 0.00 0.00 0.00 41 967.5
20260505031622 12 162 8.0 16.1 0.00 0.00 0.00 41 967.3
20260505030222 13 215 6.4 22.5 0.00 0.00 0.00 41 967.0
20260505024622 13 164 8.0 27.4 0.00 0.00 0.00 39 966.3
20260505023222 14 140 9.7 24.1 0.00 0.00 0.00 39 966.0
20260505021622 14 151 9.7 29.0 0.00 0.00 0.00 38 965.2
20260505020222 15 125 9.7 20.9 0.00 0.00 0.00 37 965.6
20260505014622 15 104 8.0 12.9 0.00 0.00 0.00 36 965.1
20260505013222 15 132 8.0 14.5 0.00 0.00 0.00 35 964.6
20260505011622 15 98 6.4 19.3 0.00 0.00 0.00 33 964.3
20260505010222 16 72 9.7 22.5 0.00 0.00 0.00 32 964.4
20260505004622 16 112 6.4 19.3 0.00 0.00 0.00 33 964.2
20260505003222 17 103 9.7 17.7 0.00 0.00 0.00 32 964.1
20260505001622 17 154 12.9 17.7 0.00 0.00 0.00 31 964.1
20260505000222 18 174 4.8 17.7 0.00 0.00 0.00 29 964.0
20260504234622 18 74 6.4 24.1 0.00 0.00 0.00 28 964.1
20260504233222 20 197 19.3 29.0 0.00 0.00 0.00 28 963.7
20260504231622 20 130 11.3 20.9 0.00 0.00 0.00 30 963.4
20260504230222 21 153 17.7 27.4 0.00 0.00 0.00 28 963.3
20260504224622 22 101 22.5 30.6 0.00 0.00 0.00 29 962.8
20260504223222 22 185 6.4 20.9 0.00 0.00 0.00 28 962.5
20260504221622 23 149 9.7 27.4 0.00 0.00 0.00 27 962.1
20260504220021 23 77 9.7 24.1 0.00 0.00 0.00 27 962.1
20260504214421 23 89 12.9 24.1 0.00 0.00 0.00 27 962.0
20260504212821 25 148 12.9 33.8 0.00 0.00 0.00 27 961.7
20260504212021 25 113 14.5 32.2 0.00 0.00 0.00 26 961.5
20260504211221 25 77 14.5 24.1 0.00 0.00 0.00 26 961.6
20260504210421 25 84 14.5 27.4 0.00 0.00 0.00 26 961.4
20260504205621 25 139 16.1 29.0 0.00 0.00 0.00 26 961.3
20260504205221 25 91 8.0 33.8 0.00 0.00 0.00 27 961.3
20260504204821 26 174 9.7 19.3 0.00 0.00 0.00 28 961.4
20260504204421 26 308 6.4 29.0 0.00 0.00 0.00 27 961.3
20260504204021 26 148 11.3 29.0 0.00 0.00 0.00 29 961.3
20260504203821 26 355 11.3 35.4 0.00 0.00 0.00 27 961.3
20260504203621 26 113 12.9 22.5 0.00 0.00 0.00 29 961.5
20260504203421 26 108 11.3 19.3 0.00 0.00 0.00 28 961.2
20260504203221 26 119 19.3 20.9 0.00 0.00 0.00 29 961.1
20260504203121 26 162 9.7 32.2 0.00 0.00 0.00 29 961.1
20260504203034 26 216 14.5 32.2 0.00 0.00 0.00 29 961.1
20260504202934 26 165 8.0 30.6 0.00 0.00 0.00 31 961.1
20260504202818 26 86 12.9 30.6 0.00 0.00 0.00 30 961.2
20260504202718 26 74 17.7 27.4 0.00 0.00 0.00 31 961.0
20260504202652 26 93 16.1 22.5 0.00 0.00 0.00 30 961.2
20260504202526 26 110 8.0 29.0 0.00 0.00 0.00 29 961.1
20260504202426 26 151 16.1 29.0 0.00 0.00 0.00 29 961.1
20260504202326 26 155 9.7 29.0 0.00 0.00 0.00 29 961.1
20260504202210 26 134 8.0 29.0 0.00 0.00 0.00 29 961.1
20260504202119 26 164 12.9 20.9 0.00 0.00 0.00 30 961.1
20260504201919 26 165 12.9 22.5 0.00 0.00 0.00 30 961.1
20260504201719 26 45 9.7 14.5 0.00 0.00 0.00 32 961.1
20260504201519 26 104 9.7 19.3 0.00 0.00 0.00 31 961.0
20260504201419 26 131 12.9 24.1 0.00 0.00 0.00 33 961.1
20260504201319 26 134 19.3 24.1 0.00 0.00 0.00 31 961.1
20260504201219 26 104 12.9 19.3 0.00 0.00 0.00 30 960.9
20260504201119 26 111 6.4 29.0 0.00 0.00 0.00 31 961.1
20260504195850 26 83 14.5 19.3 0.00 0.00 0.00 32 961.0
20260504194450 27 109 14.5 22.5 0.00 0.00 0.00 30 961.0
20260504192850 27 93 9.7 19.3 0.00 0.00 0.00 31 960.7
20260504191450 27 142 8.0 30.6 0.00 0.00 0.00 32 960.6
20260504185850 27 105 11.3 24.1 0.00 0.00 0.00 28 960.6
20260504184450 26 91 9.7 29.0 0.00 0.00 0.00 28 960.6
20260504182850 27 93 20.9 22.5 0.00 0.00 0.00 31 960.7
20260504181450 26 104 17.7 30.6 0.00 0.00 0.00 31 960.7
20260504175850 26 37 22.5 30.6 0.00 0.00 0.00 30 960.7
20260504174450 25 69 9.7 17.7 0.00 0.00 0.00 32 960.8
20260504172850 25 114 16.1 29.0 0.00 0.00 0.00 31 961.0
20260504171450 25 82 9.7 20.9 0.00 0.00 0.00 32 961.0